Location: Bethel Church
(38.0159°N, 88.7292°W)
Time: 06:39:11
(UTC+00:00)

Cosmos 921 Rocket - Pass Details

Date: 08 December 2021
Orbit: 571 x 632 km, 75.8° (Epoch: 16 January)

Event Time Altitude Azimuth Distance (km) Brightness Sun altitude
Rises 23:01:48 0° 173° (S) 2,762 6.6 -5.5°
Reaches altitude 10° 23:04:08 10° 164° (SSE) 1,873 5.7 -5.9°
Maximum altitude 23:07:53 33° 99° (E) 972 3.7 -6.6°
Drops below altitude 10° 23:11:42 10° 35° (NE) 1,908 5.1 -7.3°
Enters shadow 23:13:13 - 29° (NNE) 2,489 5.7 -7.6°
